#timestamp,LO_Frequency,Hit,StdDev 
1512219615.5,286046998.8,N
1512219635.3,286046998.1,N
1512219655.1,286046999.2,N
1512219675.9,286046998.3,N
1512219695.7,286046998.5,N
1512219715.5,286046998.3,N
1512219735.4,286047000.7,N
1512219755.2,286047000.6,N
1512219775.1,286047000.4,N
1512219776.0,286047000.4,N
1512219795.8,286047000.9,N
1512219815.6,286047000.9,N
1512219835.5,286047000.3,N
1512219855.3,286047001.5,N
1512219875.1,286047002.7,N
1512219895.9,286047002.5,N
1512219915.7,286047002.5,N
1512219935.6,286047001.5,N
1512219955.4,286047002.0,N
1512219975.2,286047000.0,N
1512219995.1,286047000.9,N
1512219996.0,286047000.9,N
1512220015.8,286047001.0,N
1512220035.6,286046999.4,N
1512220055.5,286046998.9,N
1512220075.3,286047001.2,N
1512220095.2,286047000.9,N
1512220115.9,286047001.1,N
1512220135.7,286047000.6,N
1512220155.6,286047000.8,N
1512220175.4,286047000.6,N
1512220195.2,286047000.6,N
1512220215.1,286046999.8,N
1512220216.0,286046999.8,N
1512220235.8,286047000.2,N
1512220255.7,286047002.2,N
1512220275.5,286047004.3,Y
1512220295.3,286047000.1,P
1512220315.2,286047000.1,N
1512220335.0,286047002.3,P
1512220335.9,286047002.3,N
1512220355.8,286047002.0,N
1512220375.6,286047001.8,N
1512220395.4,286047002.0,N
1512220415.3,286047000.3,N
1512220435.1,286047000.3,N
1512220455.9,286047002.3,N
1512220475.7,286047000.2,N
1512220495.5,286047000.7,N
1512220515.4,286047001.2,N
1512220535.2,286046998.1,N
1512220555.1,286047001.1,N
1512220556.0,286047001.1,N
1512220575.8,286046996.5,Y
1512220595.6,286046997.5,P
1512220615.5,286046995.5,N
1512220635.3,286046998.0,N
1512220655.2,286046994.9,N
1512220675.9,286046996.8,N
1512220695.7,286046997.3,N
1512220715.6,286046995.4,N
1512220735.4,286046995.2,N
1512220755.3,286046998.0,N
1512220775.1,286046995.0,N
1512220776.0,286046995.0,N
1512220795.8,286046996.8,N
1512220815.7,286046997.3,N
1512220835.5,286046997.5,N
1512220855.3,286046997.1,N
1512220875.2,286046995.6,N
1512220895.0,286046995.6,N
1512220895.9,286046995.6,N
1512220915.8,286046995.0,Y
1512220935.6,286046998.6,P
1512220955.4,286047000.8,N
1512220975.3,286047001.4,N
1512220995.1,286047002.8,N
1512221015.9,286046999.7,N
1512221035.7,286047001.5,N
1512221055.5,286047001.5,N
1512221075.4,286047002.4,N
1512221095.2,286047002.8,N
1512221115.1,286047000.2,N
1512221116.0,286047000.2,N
1512221135.8,286047000.9,N
1512221155.6,286046998.9,N
1512221175.5,286046999.1,N
1512221195.3,286046999.0,N
1512221215.1,286046996.5,N
1512221235.9,286046999.1,N
1512221255.7,286046997.5,N
1512221275.6,286046997.9,N
1512221295.4,286046995.0,N
1512221315.3,286046997.1,N
1512221335.1,286046996.6,N
1512221336.0,286046996.6,N
1512221355.8,286046996.8,N
1512221375.7,286046997.7,N
1512221395.5,286046997.4,N
1512221415.3,286046996.2,N
1512221435.2,286046993.8,N
1512221455.0,286046996.3,N
1512221455.9,286046996.3,N
1512221475.8,286046995.2,N
1512221495.6,286046995.0,N
1512221515.4,286046995.4,N
1512221535.3,286046993.3,N
1512221555.1,286046996.0,N
1512221575.9,286046994.5,N
1512221595.7,286046993.3,N
1512221615.5,286046996.1,N
1512221635.4,286046995.0,N
1512221655.2,286046994.9,N
1512221675.0,286046997.7,N
1512221676.0,286046997.7,N
1512221695.8,286046998.0,N
1512221715.6,286046997.9,N
1512221735.5,286046997.9,N
1512221755.3,286046995.5,Y
1512221775.1,286046998.1,P
1512221795.9,286046998.9,N
1512221815.7,286046998.8,N
1512221835.6,286046996.5,Y
1512221855.4,286047001.0,P
1512221875.2,286047001.1,N
1512221895.1,286046999.8,N
1512221896.0,286046999.8,N
1512221915.8,286046999.9,N
1512221935.6,286047000.4,N
1512221955.5,286047000.0,N
1512221975.3,286047001.1,N
1512221995.2,286047000.5,N
1512222015.9,286047002.8,Y
1512222035.7,286047001.2,P
1512222055.6,286046999.0,N
1512222075.4,286047001.2,N
1512222095.3,286046998.6,N
1512222115.1,286047001.2,N
1512222116.0,286047001.2,N
1512222135.8,286047001.2,N
1512222155.7,286046999.3,N
1512222175.5,286046998.2,N
1512222195.4,286046999.8,N
1512222215.2,286047000.2,N
1512222235.0,286047001.8,N
1512222235.9,286047001.8,N
1512222255.8,286046999.9,N
1512222275.6,286046999.7,N
1512222295.5,286047002.4,N
1512222315.3,286047002.7,N
1512222335.1,286047002.7,N
1512222355.9,286046999.9,N
1512222375.7,286047001.7,N
1512222395.6,286047001.5,N
1512222415.4,286047004.0,Y
1512222435.2,286047001.7,P
1512222455.1,286047002.1,P
1512222456.0,286047002.1,P
1512222475.8,286047001.6,N
1512222495.6,286047000.3,N
1512222515.5,286047000.6,N
1512222535.3,286046998.4,N
1512222555.2,286046999.0,N
1512222575.9,286046998.3,N
1512222595.7,286047000.4,N
1512222615.6,286047000.1,N
1512222635.4,286046999.7,N
1512222655.2,286047001.9,N
1512222675.1,286047001.7,N
1512222676.0,286047001.7,N
1512222695.8,286047004.4,Y
1512222715.7,286046999.8,P
1512222735.5,286047001.8,P
1512222755.3,286047000.4,N
1512222775.2,286047000.9,N
1512222795.0,286046999.9,N
1512222795.9,286046999.9,N
1512222815.8,286047000.6,N
1512222835.6,286046999.1,N
1512222855.5,286046996.9,Y
1512222875.3,286046999.5,P
1512222895.1,286046999.6,N
1512222915.9,286046999.3,N
1512222935.7,286046998.5,Y
1512222955.5,286047000.9,P
1512222975.4,286047000.9,N
1512222995.2,286046999.7,N
1512223015.1,286047001.0,N
1512223016.0,286047001.0,N
1512223035.8,286046998.3,N
1512223055.6,286046998.2,N
1512223075.5,286046998.3,N
1512223095.3,286047001.0,N
1512223115.2,286046998.1,N
1512223135.9,286046998.6,N
1512223155.7,286047000.7,N
1512223175.6,286047000.7,N
1512223195.4,286046998.3,N
